Temp
17 17 17 17 17 17 17 17 16 16 15 15 15 15 15 14 14 14 14 13 13 13 13 12 12 12 11 11 11 11 11 11 11 10 10 10 10 10 10 9 9 9 9 9 9 8 8 8 8 8 8 8 8 9 9 9 10 10 11 11 12 13 13 13 13 13 14 15 15 15 16 16 16 17 17 17 18 18 18 18 18 18 18 18 18
16 17 17 17 17 17 17 16 16 16 15 15 15 15 14 14 14 14 13 13 13 13 12 12 12 11 11 11 11 11 11 11 11 10 10 10 10 10 9 9 9 9 9 9 9 8 8 8 8 8 8 8 8 8 8 9 9 9 10 10 11 12 12 13 13 13 14 14 15 15 15 15 15 16 16 17 17 17 18 18 18 18 18 18 18
17 17 17 17 17 17 16 16 16 15 15 15 14 14 14 14 14 13 13 13 13 12 12 12 11 11 11 11 11 11 11 10 10 10 10 10 10 9 9 9 9 9 9 9 8 8 8 8 8 8 8 8 8 8 8 8 8 8 9 10 10 11 11 12 13 13 13 14 14 14 15 15 15 15 16 16 16 17 17 18 18 18 18 17 17
17 17 17 17 16 16 16 16 16 15 15 14 14 14 14 14 13 13 13 13 12 12 12 11 11 11 11 11 11 10 10 10 10 10 9 9 9 9 9 9 9 9 9 8 8 8 8 8 8 8 8 8 8 8 7 7 8 8 8 9 9 10 10 11 12 12 13 13 14 14 14 15 15 15 15 16 16 16 16 17 17 17 17 16 16
17 17 16 16 15 15 16 15 15 15 14 14 14 14 14 13 13 13 13 12 12 12 11 11 11 11 11 10 10 10 10 10 9 9 9 9 9 8 8 8 8 8 8 8 8 8 8 8 8 8 8 8 7 7 7 7 7 8 8 8 9 9 10 10 10 11 12 12 13 14 14 14 15 15 15 15 15 15 15 15 15 15 15 15 15
16 16 15 15 15 15 15 15 15 15 14 14 14 14 13 13 13 13 12 12 12 11 11 11 11 11 10 10 10 10 9 9 9 9 9 8 8 8 8 8 8 8 8 8 8 8 8 8 8 8 8 8 7 7 7 7 7 7 7 8 8 8 8 8 9 9 10 11 12 13 13 14 14 14 15 15 15 14 13 13 14 14 14 14 14
16 15 15 14 14 15 15 15 15 14 14 14 14 13 13 13 13 13 12 12 11 11 11 11 11 10 10 10 10 9 9 9 9 9 8 8 8 8 7 7 7 7 7 8 8 8 8 8 8 8 8 7 7 7 7 7 7 7 7 7 7 7 7 7 8 8 8 9 10 11 12 13 13 14 14 14 13 13 13 12 12 12 12 12 13
15 15 14 14 14 14 15 15 15 14 14 14 13 13 13 13 12 12 12 12 11 11 11 11 11 10 10 10 9 9 9 9 9 8 8 8 8 7 7 7 7 7 7 7 7 7 7 7 7 7 7 7 7 7 7 7 7 7 7 7 7 7 7 7 7 7 7 8 8 9 11 12 13 13 13 13 12 12 12 12 12 12 12 12 12
15 15 14 14 14 14 14 14 14 14 14 13 13 13 13 12 12 12 12 11 11 11 11 11 10 10 10 9 9 9 9 8 8 8 8 7 7 7 7 7 6 6 6 6 6 6 6 6 7 7 7 7 7 7 7 7 7 7 7 7 7 7 7 7 7 7 7 7 8 8 9 11 12 12 12 12 12 12 13 12 12 12 12 12 11
15 14 13 13 13 12 13 13 13 13 13 13 13 13 12 12 12 12 11 11 11 11 11 10 10 10 9 9 9 8 8 8 8 7 7 7 7 7 6 6 6 6 6 6 6 6 6 6 6 6 6 6 6 6 6 6 6 6 6 6 6 6 6 6 6 6 7 7 7 8 8 9 11 11 11 12 13 13 12 12 11 11 11 9 9
13 12 12 13 13 12 12 13 13 13 13 13 13 12 12 12 12 12 11 11 11 11 10 10 10 9 9 8 8 8 8 7 7 7 7 6 6 6 6 6 6 6 6 6 6 6 5 5 5 5 5 6 6 6 6 6 6 6 6 6 6 6 6 6 6 6 6 7 7 8 8 9 10 10 11 12 12 12 12 12 11 10 9 9 9
12 12 12 12 13 13 13 13 13 13 13 13 12 12 12 12 12 11 11 11 11 10 10 10 9 9 8 8 7 7 7 7 7 6 6 6 6 6 6 6 6 6 6 5 5 5 5 5 5 5 5 5 5 5 5 5 5 6 6 6 6 6 6 6 6 6 6 6 7 7 8 8 9 10 10 11 11 11 11 12 11 10 9 9 9
13 12 12 12 13 13 13 13 13 13 13 12 12 12 12 12 12 11 11 11 10 10 10 9 8 8 8 7 7 7 7 6 6 6 6 5 5 5 5 5 5 5 5 5 5 5 5 5 5 4 4 4 4 4 4 5 5 5 5 5 5 6 6 6 6 5 5 6 6 7 7 8 8 9 10 11 11 11 11 10 10 10 10 10 10
12 12 12 13 13 13 13 13 13 13 12 12 12 12 12 12 12 11 11 10 10 10 9 8 8 8 7 7 7 6 6 6 6 5 5 5 5 5 5 5 4 4 4 4 4 4 4 4 4 4 4 4 4 4 4 4 4 4 5 5 5 5 5 5 5 5 6 6 6 6 7 7 8 9 9 10 11 11 11 10 10 10 9 9 10
12 12 12 12 12 12 12 12 12 12 12 12 12 12 12 12 11 11 10 10 10 9 8 8 8 8 7 7 6 6 6 6 5 5 5 5 4 4 4 4 4 4 4 4 4 4 4 4 4 4 4 4 4 4 4 4 4 4 4 4 5 5 5 5 5 5 5 5 6 6 6 7 7 8 8 9 10 10 11 11 11 10 9 9 9
11 11 11 11 11 12 12 12 12 12 12 12 12 12 12 11 11 10 10 9 9 8 8 8 8 7 7 7 7 6 6 6 5 5 5 4 4 4 4 4 4 4 4 3 3 3 3 3 3 3 3 3 3 3 3 3 4 4 4 4 4 4 4 5 5 5 5 5 5 5 6 6 6 7 7 8 9 10 10 11 10 9 9 8 8
11 11 11 11 11 12 12 12 11 11 12 12 12 11 11 11 10 10 9 9 8 8 8 8 8 7 7 7 7 6 6 6 5 5 4 4 4 4 4 4 3 3 3 3 3 3 3 3 3 3 3 3 3 3 3 3 3 3 3 4 4 4 4 4 4 5 5 5 5 5 5 5 6 6 7 8 9 9 9 9 9 9 9 8 7
11 11 11 11 12 12 12 11 11 11 11 11 11 10 10 10 10 9 9 9 8 8 8 8 8 8 7 7 6 6 6 5 5 4 4 4 4 3 3 3 3 3 3 3 2 2 2 2 2 2 2 2 2 2 2 2 3 3 3 3 4 4 4 4 4 4 5 5 5 5 5 5 6 7 8 8 9 9 9 9 9 9 9 9 8
11 11 11 11 11 12 11 11 11 10 10 10 10 10 10 10 9 9 9 9 8 8 8 8 8 7 7 6 6 5 5 5 4 4 4 3 3 3 3 2 2 2 2 2 2 2 2 2 2 2 2 1 1 1 2 2 2 2 3 3 3 3 4 4 4 4 4 5 5 5 5 5 6 7 7 8 9 9 8 9 10 9 9 9 9
11 11 11 11 11 11 11 10 10 10 10 10 10 10 10 9 9 9 9 9 9 8 8 8 7 7 6 5 5 5 4 4 4 3 3 3 2 2 2 1 1 1 1 1 1 1 1 1 1 1 1 1 1 1 1 1 1 2 2 2 3 3 3 4 4 4 4 4 4 5 5 5 5 6 6 7 8 8 8 8 9 10 10 10 9
10 10 10 10 11 10 10 10 10 10 10 10 10 10 10 9 9 9 9 9 8 8 7 7 7 6 5 5 4 4 4 3 3 3 2 2 2 1 1 1 0 0 0 0 0 0 0 0 0 0 0 0 0 0 1 1 1 1 1 2 2 3 3 3 4 4 4 4 4 4 4 4 4 5 5 6 6 7 8 8 9 10 10 10 10
9 10 10 10 10 10 10 10 11 11 11 10 10 10 10 9 9 9 9 8 8 7 7 7 6 5 5 5 4 4 4 3 2 2 2 1 1 1 0 -0 -0 -0 -0 -0 -0 -0 -0 -0 -0 -0 -0 -0 -0 -0 0 0 0 1 1 1 1 2 2 3 3 3 4 4 4 4 4 4 4 4 5 5 6 7 7 8 9 9 10 11 11
9 9 9 9 9 10 11 11 11 11 10 10 10 10 10 9 9 9 8 8 7 7 7 6 5 4 4 4 4 3 3 3 2 1 1 0 0 -0 -0 -1 -1 -1 -1 -1 -1 -1 -1 -1 -1 -1 -1 -1 -1 -1 -1 -0 -0 0 0 0 1 1 2 2 2 3 3 3 3 4 4 4 4 4 4 5 5 6 7 8 9 9 10 11 11
9 9 9 10 10 11 11 11 10 10 10 10 10 10 10 9 9 9 8 8 8 7 6 5 5 4 3 3 3 3 3 2 1 1 0 0 -0 -0 -1 -1 -1 -1 -1 -1 -1 -1 -1 -1 -1 -1 -1 -1 -1 -1 -1 -1 -1 -1 -0 -0 0 0 1 1 2 2 3 3 3 3 3 3 3 4 4 4 5 6 7 8 9 9 10 10 10
9 9 9 10 11 11 11 11 10 10 10 10 10 10 9 9 9 8 8 8 7 6 5 5 4 3 3 2 2 2 2 2 1 1 0 -0 -0 -1 -1 -1 -1 -1 -1 -1 -1 -1 -1 -1 -1 -2 -2 -2 -2 -2 -1 -1 -1 -1 -1 -1 -0 -0 0 1 2 2 2 2 3 3 3 3 3 4 4 4 5 6 6 7 8 9 9 9 9
8 9 10 11 11 11 10 10 10 10 10 10 10 9 9 9 9 8 8 7 7 6 5 4 4 3 2 2 2 2 2 1 0 0 -0 -1 -1 -1 -1 -1 -1 -1 -2 -2 -2 -2 -2 -2 -2 -2 -2 -2 -2 -1 -1 -1 -1 -1 -1 -1 -1 -0 -0 1 1 2 2 2 3 3 3 3 3 4 4 4 5 6 6 7 8 8 8 8 8
9 10 11 11 11 11 10 10 10 10 10 10 9 9 9 9 8 8 8 7 6 6 5 4 4 3 2 2 2 2 1 1 0 -0 -1 -1 -1 -1 -2 -2 -2 -2 -2 -2 -2 -2 -2 -2 -2 -2 -2 -2 -1 -1 -1 -1 -1 -1 -1 -0 -1 -0 -0 0 1 2 2 2 3 3 3 3 3 4 4 4 5 6 6 7 7 7 7 8 7
10 10 11 11 11 11 11 10 10 10 10 9 9 9 9 8 8 8 8 7 6 6 5 4 4 3 2 2 2 1 1 0 0 -0 -1 -1 -2 -2 -2 -2 -2 -2 -2 -2 -2 -2 -2 -2 -2 -2 -2 -2 -1 -1 -1 -1 -1 -0 -0 -0 -0 -0 -0 0 1 2 2 2 3 3 3 3 3 4 4 4 5 6 6 7 7 7 7 7 6
11 11 11 11 11 11 11 11 10 10 9 9 9 8 8 8 8 8 7 7 6 6 6 5 4 3 3 2 2 1 1 1 0 -0 -1 -1 -1 -2 -2 -2 -2 -2 -2 -2 -2 -2 -2 -2 -2 -2 -2 -1 -1 -1 -1 -0 -0 -0 -0 -0 -0 -0 0 0 1 1 2 2 2 3 3 3 3 4 4 4 5 6 6 7 7 6 6 6 5
11 11 11 11 11 11 11 10 10 9 9 9 9 8 8 8 7 7 7 7 6 6 6 5 5 4 3 3 2 2 1 1 0 -0 -1 -1 -1 -2 -2 -2 -2 -2 -2 -2 -2 -2 -2 -2 -1 -1 -1 -1 -1 -0 0 0 0 0 -0 -0 -0 0 0 1 1 1 2 2 2 2 3 3 3 4 4 5 5 6 6 6 6 6 6 6 5
11 11 11 11 11 11 10 10 9 9 9 9 8 8 8 8 7 7 7 7 6 6 6 5 5 4 3 3 3 3 2 1 0 -0 -1 -1 -1 -2 -2 -2 -2 -2 -2 -2 -2 -2 -2 -1 -1 -1 -1 -0 0 0 1 1 1 0 0 0 0 0 1 1 1 2 2 2 2 2 3 3 3 4 4 5 5 5 5 5 5 5 5 5 4
11 11 11 11 10 10 10 9 9 9 9 8 8 8 8 8 7 7 7 7 6 6 6 5 5 4 4 3 3 3 2 2 1 -0 -1 -1 -2 -2 -2 -2 -2 -2 -2 -2 -2 -2 -1 -1 -1 -1 -0 -0 0 1 1 1 1 1 1 1 1 1 1 1 2 2 2 2 2 3 3 3 4 4 4 5 4 4 4 4 5 5 5 4 4
11 11 11 10 10 10 10 9 9 9 8 8 8 8 8 8 7 7 7 7 7 6 6 5 5 4 4 4 3 2 2 2 1 -0 -1 -1 -2 -2 -2 -2 -2 -2 -2 -2 -2 -2 -2 -1 -1 -1 -1 -0 0 1 1 1 1 1 1 1 1 1 1 1 2 2 3 3 3 3 3 4 4 4 4 4 4 4 4 4 4 4 4 3 3
11 10 10 10 10 10 9 9 9 8 8 8 8 8 8 8 7 7 7 7 7 6 6 5 5 5 4 4 3 2 2 2 1 -0 -1 -2 -2 -2 -2 -2 -2 -2 -2 -2 -2 -2 -2 -2 -2 -1 -1 -1 -1 0 1 1 2 1 1 1 2 2 2 2 2 2 3 3 3 4 4 4 4 3 3 3 3 3 3 3 3 3 3 2 2
10 10 10 10 10 9 9 9 9 8 8 8 9 9 8 8 8 7 7 7 7 6 6 6 6 5 4 4 3 2 2 2 1 -0 -1 -2 -2 -2 -3 -3 -2 -2 -2 -2 -2 -2 -2 -2 -2 -2 -2 -1 -1 -0 0 1 2 2 2 2 2 2 2 2 2 2 3 3 3 3 4 3 3 3 3 2 2 2 2 2 3 3 2 2 2
10 10 10 10 9 9 9 9 9 8 8 9 9 9 8 8 8 8 7 7 7 6 6 6 6 5 5 4 3 2 2 2 0 -1 -1 -2 -2 -2 -3 -3 -3 -3 -3 -3 -3 -2 -2 -2 -2 -2 -2 -2 -1 -1 -0 1 1 2 2 2 2 2 2 2 2 3 3 3 3 3 3 3 2 2 2 2 2 2 2 2 2 2 2 2 1
10 10 9 9 9 9 9 9 9 9 9 9 9 9 8 8 8 8 8 7 7 6 6 6 6 5 5 4 2 2 2 2 0 -1 -1 -2 -2 -3 -3 -3 -3 -3 -3 -3 -3 -3 -3 -2 -2 -2 -2 -2 -1 -1 -0 0 1 1 2 2 2 2 2 2 3 3 3 3 3 3 2 2 2 2 2 2 2 2 2 2 2 2 2 2 2
10 10 9 9 9 9 9 9 9 9 9 9 9 8 8 8 8 8 8 7 7 7 6 6 6 5 4 3 2 2 2 2 0 -1 -2 -2 -2 -3 -3 -3 -3 -3 -3 -3 -3 -3 -3 -3 -3 -2 -2 -2 -2 -1 -1 -0 0 1 1 1 2 2 2 2 2 2 3 2 2 2 2 2 2 2 2 2 2 1 1 1 1 1 1 2 2
10 9 9 9 9 9 9 8 8 8 9 9 8 8 8 8 8 8 8 8 7 7 7 6 6 5 4 3 2 2 2 1 -0 -1 -2 -2 -3 -3 -3 -3 -3 -3 -3 -3 -3 -3 -3 -3 -3 -3 -2 -2 -2 -1 -1 -1 -0 0 1 1 1 1 2 2 2 2 2 2 1 1 1 1 2 2 2 2 1 1 1 1 1 2 1 1 1
9 9 9 9 9 9 8 8 8 8 8 8 8 8 8 8 8 8 8 8 7 7 7 6 5 5 4 3 2 2 1 0 -1 -2 -2 -2 -3 -3 -3 -3 -3 -3 -3 -3 -3 -3 -3 -3 -3 -3 -3 -2 -2 -2 -1 -1 -1 -0 0 1 1 1 1 1 1 1 1 1 1 1 1 1 1 1 1 1 1 1 1 1 1 1 1 1 1
9 9 9 9 9 9 9 8 8 8 8 8 8 8 8 8 8 8 8 7 7 7 7 6 5 5 4 3 2 2 1 1 -1 -2 -2 -3 -3 -3 -3 -3 -3 -3 -3 -3 -3 -3 -3 -3 -3 -3 -3 -3 -2 -2 -2 -1 -1 -1 -0 -0 0 1 1 1 1 1 1 1 1 1 1 1 1 1 1 1 1 1 1 1 1 1 1 1 1
9 9 9 9 9 8 8 8 8 8 8 8 8 8 8 8 8 8 8 7 7 7 6 6 5 5 4 3 3 2 2 1 -0 -1 -2 -3 -3 -3 -3 -3 -3 -3 -3 -3 -3 -3 -3 -3 -3 -3 -3 -3 -3 -2 -2 -2 -1 -1 -1 -1 -0 -0 0 0 1 1 1 1 1 1 1 1 1 1 1 1 1 1 1 1 1 1 1 1 1
8 8 8 8 8 7 7 7 7 7 7 7 7 7 8 8 8 7 7 7 7 6 6 6 5 5 4 4 3 2 2 1 0 -1 -2 -3 -3 -3 -3 -3 -3 -3 -3 -3 -3 -3 -3 -3 -3 -3 -3 -3 -3 -3 -2 -2 -2 -1 -1 -1 -1 -1 -0 -0 0 1 1 1 1 1 1 1 1 1 1 1 1 1 1 0 1 1 1 1 1
8 7 7 7 7 6 6 6 6 6 6 6 6 7 7 7 7 6 6 6 5 5 5 5 5 4 4 4 3 2 2 1 1 -0 -1 -2 -3 -3 -3 -3 -3 -3 -3 -3 -3 -3 -3 -3 -3 -3 -3 -3 -3 -3 -2 -2 -2 -2 -2 -1 -1 -1 -1 -1 -0 -0 0 0 0 0 0 0 0 0 0 0 0 0 0 0 0 0 0 0 0
7 7 6 6 6 5 5 5 5 5 5 5 5 5 5 5 5 4 4 4 4 4 4 4 4 4 3 3 3 2 1 1 1 0 -0 -2 -2 -3 -3 -3 -3 -3 -3 -3 -3 -3 -3 -3 -3 -3 -3 -3 -3 -3 -3 -2 -2 -2 -2 -1 -1 -1 -1 -1 -1 -1 -0 -0 -0 -0 -0 -0 -0 -0 -0 -0 0 0 0 0 0 0 0 0 -0
6 6 5 5 4 4 4 4 4 4 4 4 4 3 3 4 3 3 3 3 3 3 3 3 3 3 3 2 2 2 1 1 1 1 0 -1 -2 -2 -2 -3 -3 -3 -3 -3 -3 -3 -3 -3 -3 -3 -3 -3 -3 -3 -3 -3 -2 -2 -2 -2 -1 -1 -1 -1 -1 -1 -0 -0 -0 -0 -0 -0 -0 -0 -0 -0 0 0 0 0 0 0 -0 -0 -0
5 4 4 4 3 3 3 3 3 3 2 2 2 2 2 2 2 2 2 2 2 1 1 1 1 1 2 2 1 1 1 0 0 1 0 -0 -1 -2 -2 -2 -2 -3 -3 -3 -3 -3 -3 -3 -3 -3 -3 -3 -3 -3 -3 -3 -2 -2 -2 -1 -1 -1 -1 -0 -0 -0 -0 -0 -0 -0 -0 -0 -0 -0 -0 0 0 0 0 0 0 -0 -0 -0 -0
3 3 3 3 2 2 2 1 1 1 1 0 0 0 0 1 1 1 1 0 0 0 0 0 0 0 0 1 1 0 0 -0 -0 0 0 0 -1 -1 -2 -2 -2 -2 -3 -3 -3 -3 -3 -3 -3 -3 -3 -3 -3 -3 -3 -2 -2 -2 -2 -2 -1 -1 -1 -0 -0 -0 -0 -0 -0 -0 -0 -0 -0 -0 -0 0 0 0 0 0 -0 -0 -0 -0 -0
2 2 1 1 1 0 0 -0 -1 -1 -1 -2 -2 -2 -2 -1 -1 -1 -1 -1 -1 -1 -1 -1 -1 -1 -1 -0 -0 -0 -0 -0 -1 -1 -0 0 -0 -1 -2 -2 -2 -2 -2 -3 -3 -3 -3 -3 -3 -3 -3 -3 -3 -3 -3 -2 -2 -2 -2 -2 -1 -1 -1 -1 -1 -1 -1 -1 -1 -1 -1 -0 -0 -0 -0 0 0 0 -0 -0 -0 -0 0 0 0
1 0 0 -0 -1 -1 -1 -1 -2 -2 -3 -3 -3 -3 -3 -3 -3 -3 -2 -2 -3 -3 -3 -3 -2 -2 -2 -1 -1 -1 -1 -1 -2 -2 -1 -0 -0 -1 -1 -1 -2 -2 -2 -2 -2 -2 -3 -3 -3 -3 -3 -3 -3 -3 -3 -2 -2 -2 -2 -2 -1 -1 -1 -1 -1 -1 -1 -1 -1 -1 -0 -0 -0 -0 -0 0 0 0 -0 -0 -0 -0 -0 -0 -0
-0 -0 -1 -1 -1 -1 -2 -2 -3 -3 -3 -3 -3 -3 -3 -4 -4 -4 -4 -4 -4 -4 -4 -4 -3 -3 -2 -2 -2 -2 -2 -2 -2 -2 -1 -1 -1 -1 -1 -1 -2 -2 -2 -2 -2 -2 -2 -2 -2 -2 -3 -3 -3 -3 -3 -3 -2 -2 -2 -1 -1 -1 -1 -1 -1 -1 -0 -0 -0 -0 -0 -0 -0 -0 -0 -0 -0 -0 -0 -0 -0 -0 -0 -0 -0
Height
780 781 783 785 788 789 791 793 795 798 800 801 803 804 806 808 809 811 812 813 815 815 816 817 817 818 818 818 818 818 818 818 817 817 817 817 816 816 816 815 815 814 813 812 812 811 811 810 809 809 809 808 808 807 807 806 806 805 805 804 803 802 801 799 797 794 792 792 792 792 794 795 795 794 793 793 794 794 794 794 795 796 797 797 798
777 779 781 783 784 786 788 791 793 796 798 799 801 802 804 806 808 809 810 812 813 814 815 816 816 817 816 816 817 816 816 816 816 815 815 815 815 814 814 814 813 812 811 811 810 810 809 808 807 807 807 807 806 806 805 804 804 803 803 803 801 801 800 798 795 793 789 788 789 790 790 792 791 791 791 790 791 791 792 791 791 792 793 793 794
774 776 778 779 781 783 786 789 791 793 796 797 799 800 802 804 806 807 809 810 812 813 814 815 815 815 815 815 815 815 815 815 814 814 813 813 813 812 812 812 811 810 810 809 809 808 807 806 806 805 805 805 804 804 803 803 802 801 800 800 800 798 798 797 795 792 789 785 786 787 787 788 787 787 788 788 788 788 789 788 788 789 789 789 790
772 774 775 776 778 781 783 786 788 791 793 795 797 799 801 803 804 806 808 809 811 812 813 813 814 814 814 814 814 814 813 813 813 813 812 812 811 811 810 810 809 808 807 807 807 806 806 805 804 804 804 803 802 801 801 801 800 800 798 798 797 796 796 795 794 792 789 785 783 783 784 784 784 784 784 785 785 785 785 785 786 786 786 786 787
770 771 772 773 775 777 780 783 785 788 791 793 795 797 799 801 803 805 806 808 809 811 811 812 812 812 812 812 812 812 812 812 812 811 811 810 810 809 808 808 807 806 805 805 804 804 804 803 802 802 802 801 800 799 799 799 799 798 797 796 795 794 793 793 792 791 789 785 782 781 781 781 781 781 781 781 781 781 782 783 783 784 784 784 784
770 769 770 771 772 774 776 779 782 785 788 791 793 795 797 800 802 803 805 806 808 809 810 810 811 811 811 811 811 811 811 811 810 810 809 809 808 807 806 806 805 804 803 803 802 802 801 801 800 800 800 799 799 798 797 797 797 796 796 795 794 793 791 790 790 789 788 785 782 780 779 778 778 778 778 779 779 778 779 780 781 781 781 781 782
768 767 769 769 769 770 771 774 778 781 785 788 791 794 796 798 800 802 804 805 806 807 808 809 809 809 810 809 809 809 809 809 809 808 808 807 806 805 804 804 803 802 801 800 800 799 799 799 798 798 798 797 796 796 795 795 795 794 794 793 793 792 790 789 789 788 787 785 782 780 778 777 775 774 775 776 777 777 778 778 778 779 779 779 779
764 765 766 766 767 767 768 771 774 778 783 787 790 792 794 796 799 801 802 803 805 806 807 807 808 808 808 808 808 808 808 807 807 806 806 805 804 803 802 802 800 799 799 798 797 797 796 796 795 795 795 794 794 794 793 793 792 791 791 792 791 790 789 788 787 787 786 785 782 780 779 777 774 772 772 774 775 776 776 775 774 775 776 777 777
758 761 763 764 764 764 766 769 773 777 781 784 788 790 793 795 797 799 801 802 803 804 805 806 806 806 807 806 806 806 806 806 805 805 804 803 802 801 800 799 798 796 795 795 794 794 793 793 792 792 792 791 791 791 791 791 790 789 788 789 789 788 787 787 786 785 784 783 781 779 778 777 774 772 770 769 770 772 772 773 773 773 773 774 775
756 757 759 762 765 767 769 770 773 777 780 783 786 789 791 794 796 797 799 800 802 803 803 804 804 805 805 805 805 805 804 804 803 803 802 801 800 798 797 796 795 794 792 791 790 790 790 789 789 789 788 788 788 788 787 787 787 787 786 785 786 785 785 784 784 783 782 781 779 778 776 774 774 773 770 767 766 768 769 771 771 771 772 774 774
760 759 758 759 762 768 773 774 776 778 781 783 785 787 790 792 794 796 797 799 800 801 802 802 803 803 804 803 803 803 803 802 801 800 800 799 798 796 794 793 792 791 789 788 787 786 786 785 785 785 784 784 784 784 783 783 783 783 782 782 782 782 782 781 781 780 780 778 776 776 774 772 771 772 771 769 767 766 766 767 767 768 770 771 772
761 763 763 761 760 764 770 773 775 778 781 783 785 786 788 791 792 795 796 798 799 799 800 801 801 802 802 802 802 801 801 800 799 798 797 796 795 794 792 790 789 788 786 785 783 782 782 781 781 781 780 780 780 779 779 778 778 778 777 777 777 777 777 778 777 777 777 776 774 772 771 770 769 768 769 769 768 766 766 765 766 766 767 767 767
753 758 762 763 761 763 767 769 772 776 779 783 784 785 787 788 791 793 795 796 797 798 798 798 799 800 800 800 800 800 799 798 797 796 794 793 793 791 789 788 786 784 783 782 781 779 778 777 776 776 776 776 776 775 775 774 773 773 772 772 771 771 771 772 772 773 773 772 770 767 767 768 766 765 766 768 767 766 765 765 764 764 764 763 762
749 752 755 758 759 762 764 766 768 772 776 781 783 784 785 786 789 791 793 795 796 796 796 796 797 798 798 799 799 798 797 796 794 793 791 790 789 788 786 785 783 781 780 779 777 776 775 774 772 771 772 772 771 771 771 770 769 768 767 766 765 765 765 766 767 768 768 767 765 763 763 764 763 761 764 766 765 764 764 763 763 762 762 761 761
746 747 750 753 756 759 762 765 767 769 773 778 781 782 783 785 787 790 792 794 794 794 794 794 795 796 796 796 796 795 794 793 791 790 788 787 786 784 782 781 779 777 776 775 774 772 771 770 768 767 767 767 767 767 767 766 765 763 762 761 760 759 759 760 761 762 762 762 761 759 759 760 759 759 760 762 762 761 761 761 761 761 762 762 762
743 744 747 750 754 758 763 767 770 771 773 777 780 781 782 783 786 789 791 792 792 792 792 793 793 794 794 794 794 793 792 790 788 786 785 784 782 780 779 777 775 773 771 770 769 768 767 766 765 763 763 762 763 763 763 763 761 759 757 755 754 754 753 754 757 757 756 756 756 755 754 755 755 756 756 757 758 758 759 758 758 759 760 761 761
739 741 744 747 750 755 761 766 772 774 775 777 780 781 782 783 785 787 788 789 790 791 791 791 791 791 792 792 791 790 788 787 785 783 782 780 779 777 775 772 770 768 767 766 765 763 763 762 761 760 758 758 758 758 759 758 756 754 752 750 749 748 746 749 751 751 750 751 750 750 750 750 750 751 752 752 753 754 755 753 752 754 756 757 758
736 737 739 743 747 751 757 764 770 774 776 778 780 782 783 784 784 785 786 787 788 789 789 789 789 789 789 789 788 786 785 783 782 780 778 777 775 773 771 769 766 764 762 761 760 759 758 757 757 756 754 753 754 754 754 754 752 749 748 746 744 741 741 745 746 744 744 745 744 744 745 745 745 746 746 746 747 749 749 747 747 749 750 751 752
733 734 736 740 744 749 755 762 768 772 775 777 779 781 782 783 783 784 784 785 786 786 786 787 787 787 787 787 785 784 782 780 779 777 775 774 772 770 768 765 762 760 758 756 755 754 753 752 752 751 750 749 749 748 748 749 747 744 744 742 738 735 737 740 740 739 740 739 738 739 739 739 740 740 740 740 741 741 742 742 743 744 744 745 747
730 732 735 739 744 748 754 761 766 770 773 775 778 780 781 781 782 782 783 783 784 784 785 785 786 786 785 784 782 781 779 777 776 774 772 770 769 767 765 762 759 756 754 752 750 749 748 747 746 746 745 744 743 743 742 742 741 739 738 736 732 731 734 735 734 734 735 734 733 733 734 734 735 734 734 735 735 735 735 737 738 738 738 740 742
728 729 734 740 746 750 755 760 764 767 770 774 777 779 779 779 779 780 781 781 782 782 783 784 784 784 783 781 780 778 777 774 772 770 768 766 765 764 762 759 757 753 750 748 746 744 742 742 741 740 739 738 737 737 736 736 736 734 731 730 728 729 731 730 728 729 730 728 728 728 728 728 729 729 729 729 730 730 730 731 732 732 733 734 736
728 730 736 743 749 755 758 761 763 765 768 772 775 777 777 777 777 778 779 780 780 781 782 782 782 781 780 779 777 776 774 772 769 767 764 762 761 760 758 756 754 751 746 743 741 739 738 736 735 734 733 732 731 730 729 729 729 727 724 724 724 725 726 724 723 724 723 723 723 722 722 723 723 723 723 723 724 726 726 725 726 727 727 728 730
729 733 741 748 754 759 760 761 762 764 767 771 773 774 775 775 776 777 778 779 779 780 781 780 780 779 777 776 775 773 771 769 766 763 760 758 757 756 754 752 750 748 743 738 736 734 732 730 729 728 727 726 724 723 722 722 721 719 718 718 719 719 720 719 718 718 717 717 717 716 716 717 717 717 718 718 719 721 721 721 721 722 723 724 725
732 738 746 752 756 759 759 760 762 764 767 770 772 773 773 774 775 776 776 778 778 779 779 779 778 777 775 774 772 770 768 765 762 759 757 755 753 751 750 747 745 743 739 734 731 728 726 724 722 721 720 718 717 716 715 714 713 711 711 712 712 713 713 712 711 711 711 711 711 710 710 711 712 713 713 714 715 716 717 717 717 718 719 720 722
736 744 750 753 755 756 757 759 761 764 767 769 770 771 772 773 774 775 776 777 777 777 777 777 776 775 774 771 769 767 764 761 758 755 753 751 749 747 745 742 740 737 733 729 726 723 720 717 715 714 713 711 709 708 706 705 704 703 703 704 705 706 706 705 705 705 704 704 704 704 704 706 707 708 710 711 712 712 712 713 713 714 715 717 719
742 748 751 751 753 755 757 759 762 764 767 769 770 771 772 772 773 774 775 776 776 775 775 775 774 772 771 769 766 763 761 758 755 752 750 748 745 743 740 737 734 731 727 723 719 716 713 711 709 707 705 703 701 700 697 696 695 695 695 695 696 697 697 698 698 698 697 697 698 699 699 701 703 705 706 707 707 707 708 709 709 710 711 713 716
745 748 749 750 752 754 757 759 762 764 767 768 769 771 771 772 773 773 774 774 774 773 773 772 771 770 768 766 763 761 758 755 752 749 747 744 741 738 735 731 728 724 721 717 713 710 707 704 702 700 697 695 693 691 689 688 687 687 687 687 688 688 689 690 691 692 692 692 693 694 695 697 699 700 701 702 702 702 703 705 705 706 707 709 713
744 746 748 750 752 754 756 759 762 764 767 768 770 771 772 772 773 773 772 772 771 771 770 769 768 767 765 763 761 758 756 753 749 746 743 740 736 733 729 726 723 719 715 712 708 704 701 698 695 693 690 687 685 683 681 680 679 679 678 679 680 681 682 684 685 686 687 688 689 690 692 693 694 695 696 697 697 697 699 701 701 702 704 706 709
743 745 748 750 751 753 756 759 762 765 767 769 770 771 771 772 772 771 771 770 769 768 767 766 765 765 763 762 759 756 753 749 746 743 740 736 733 730 726 722 718 714 711 707 703 699 696 692 689 686 684 681 679 676 674 673 672 671 671 672 673 674 676 677 678 680 681 683 685 686 687 689 689 690 692 692 692 693 695 696 698 699 701 703 706
742 745 747 749 751 753 756 760 763 766 768 769 770 770 771 771 770 769 768 768 767 766 765 764 764 763 762 760 758 755 751 747 743 740 736 733 730 726 722 718 714 710 706 702 699 694 691 687 684 681 679 676 673 670 668 667 666 665 665 666 667 668 670 671 672 673 676 678 680 681 683 684 685 686 687 688 688 689 691 693 694 696 698 701 704
742 745 747 749 751 754 758 761 764 767 768 769 769 770 770 769 768 767 766 766 765 764 764 763 763 762 760 758 756 754 750 745 741 737 733 730 726 722 718 714 710 705 702 698 695 691 687 684 680 677 674 671 668 665 663 662 661 660 660 661 662 663 664 665 666 668 670 673 675 676 678 679 680 681 682 683 684 686 688 690 692 694 696 698 701
742 745 748 750 753 757 759 762 765 766 767 767 768 768 768 767 766 766 765 764 764 763 763 762 762 760 759 757 754 751 748 743 739 734 730 727 723 719 715 710 706 702 699 695 692 689 686 682 678 674 671 668 664 661 659 657 657 656 656 657 657 658 658 659 661 663 665 667 669 671 673 674 676 677 678 679 681 683 685 687 690 692 694 697 700
743 746 750 753 755 758 760 763 765 765 765 766 766 766 765 765 765 764 764 763 763 762 762 762 761 759 757 756 753 750 746 742 737 732 728 724 720 716 712 707 703 700 697 694 691 687 684 680 676 672 669 665 661 658 656 654 653 653 653 653 653 653 654 655 658 660 661 663 665 666 668 670 672 673 675 676 678 680 682 685 688 690 694 697 701
746 748 751 754 756 759 761 763 763 764 764 764 764 764 764 764 763 763 763 762 762 761 761 761 760 758 756 754 752 749 744 740 735 730 726 722 718 714 710 705 701 698 696 693 690 686 682 679 675 671 667 663 660 657 654 652 651 650 650 650 650 650 651 653 655 657 658 660 662 663 665 667 668 670 672 674 676 679 681 683 686 689 692 696 701
748 751 753 755 757 759 761 762 762 762 762 763 763 763 763 763 763 763 762 762 761 760 760 759 758 757 755 752 749 746 742 738 733 728 724 721 716 712 707 703 699 696 694 691 689 685 682 678 674 670 667 663 659 656 653 650 649 648 647 647 647 647 648 649 651 652 654 656 658 660 662 664 666 667 670 672 675 677 680 683 685 688 691 695 700
749 752 754 755 757 759 760 760 760 761 762 762 762 763 763 762 762 762 762 761 760 759 758 757 756 755 753 750 748 744 740 736 731 727 723 720 715 711 707 704 701 697 694 691 688 684 681 678 674 670 666 662 659 656 653 650 648 646 645 644 644 644 644 645 646 647 650 652 655 657 659 662 664 666 669 672 675 677 680 683 686 689 691 694 699
751 753 754 756 757 758 759 759 759 760 761 762 762 762 762 762 762 761 760 760 759 758 757 756 754 752 750 748 746 743 739 735 730 726 722 719 715 711 708 705 702 699 695 691 688 684 681 678 674 670 666 663 659 656 653 650 648 646 645 643 642 642 641 641 642 643 646 649 651 654 657 660 663 666 668 672 676 680 683 685 687 691 694 696 700
751 753 755 756 757 758 758 759 760 760 761 761 762 762 762 761 760 760 759 759 758 757 756 754 752 750 748 746 744 742 738 733 728 724 720 717 714 711 709 706 703 700 696 692 689 685 682 678 674 670 667 663 660 657 654 651 649 647 646 644 643 642 641 641 642 643 645 648 651 654 657 660 663 666 668 671 674 679 683 686 688 691 696 699 703
752 754 755 756 757 758 759 759 760 760 761 761 761 761 761 760 759 759 758 757 757 756 754 753 751 750 747 745 744 741 737 732 727 723 720 718 715 713 710 707 704 700 697 693 690 686 683 679 675 672 668 665 661 658 655 653 651 649 647 646 644 643 643 643 644 645 646 649 652 655 658 661 664 667 669 672 675 679 683 687 689 692 696 701 705
753 755 756 756 757 758 759 759 760 761 761 761 761 760 760 759 758 757 757 757 756 755 754 752 751 749 747 746 744 741 738 734 729 726 723 720 717 715 712 708 705 702 698 695 691 688 684 681 677 674 670 667 663 660 658 655 653 651 650 648 647 646 646 646 646 647 648 651 655 658 660 663 666 669 672 675 678 681 684 687 691 694 697 702 706
754 755 756 757 758 758 759 760 760 761 761 760 760 759 758 757 756 756 756 756 755 754 753 752 751 749 748 746 744 743 740 736 732 729 725 722 720 717 714 711 707 704 700 697 693 690 687 683 680 676 673 669 666 663 660 658 656 654 653 651 650 649 649 649 650 650 651 653 657 661 664 666 668 672 675 678 681 684 686 689 693 697 700 704 708
755 755 756 757 758 759 759 760 761 760 760 759 758 758 757 756 756 756 755 755 755 754 753 751 751 749 748 747 745 743 741 737 734 730 727 724 722 719 716 713 710 706 703 700 696 693 690 686 683 680 676 672 669 666 663 661 659 658 656 655 653 653 653 653 654 654 655 656 659 663 666 669 672 674 677 681 684 687 689 692 695 699 703 707 711
755 756 757 758 759 760 760 760 760 760 759 759 758 758 757 756 756 756 755 755 754 754 752 751 750 749 748 747 745 744 742 738 735 732 729 726 724 721 718 715 712 709 706 703 699 696 693 690 686 683 680 676 673 670 667 665 663 661 660 659 657 657 657 657 658 658 659 660 662 665 668 672 675 677 680 684 687 689 692 695 699 702 706 710 713
756 757 758 759 760 761 761 760 760 760 760 759 758 758 757 757 757 756 756 755 754 754 752 751 750 749 748 747 745 744 742 739 736 734 731 728 725 723 720 717 714 711 708 705 702 699 696 693 690 686 683 680 677 674 672 669 667 665 664 663 661 661 662 662 662 662 662 663 666 668 671 674 678 681 683 687 690 693 696 699 702 705 709 713 716
758 759 760 760 761 762 762 762 761 761 760 760 759 759 758 758 758 757 757 756 755 754 753 751 750 749 748 747 746 744 742 740 738 735 732 730 727 724 722 719 717 714 711 708 705 702 699 696 693 690 687 684 681 678 676 674 672 670 669 667 666 666 666 667 667 668 668 668 669 672 674 678 681 684 687 690 693 696 700 703 706 709 712 716 719
760 760 761 762 762 763 763 763 763 762 761 760 760 760 760 759 759 759 758 757 756 755 754 752 751 750 749 748 746 745 743 741 739 737 734 732 729 726 724 721 719 717 714 711 708 706 703 700 697 694 691 689 686 683 681 679 677 675 674 673 672 671 672 672 672 673 673 674 675 676 678 681 685 688 691 694 698 701 704 707 710 712 716 719 723
762 763 763 764 764 764 765 764 764 763 762 762 761 761 761 761 760 760 759 758 758 757 755 754 753 751 750 748 747 745 743 742 740 738 736 734 731 729 727 724 721 719 717 714 712 709 706 704 701 698 696 693 691 688 686 684 682 681 679 678 678 677 677 677 677 678 679 680 680 681 682 685 688 692 695 699 702 705 708 711 713 716 720 724 727
765 765 766 766 766 766 766 766 765 765 764 763 763 762 762 762 761 761 760 760 759 758 756 755 754 752 751 749 748 746 744 742 740 739 738 736 734 732 729 727 725 722 720 717 715 712 710 707 705 703 700 698 696 694 692 690 688 686 685 685 684 683 683 683 683 684 684 685 686 687 688 690 692 696 700 703 706 709 711 714 718 721 724 728 731
767 768 768 768 768 768 768 768 767 767 766 765 765 764 763 763 762 761 761 761 760 759 758 757 755 754 752 750 749 747 745 743 741 740 739 738 736 734 732 730 728 726 723 721 718 716 714 711 709 707 705 703 701 699 697 696 694 693 692 691 691 690 689 689 689 690 690 691 692 693 694 695 698 701 704 708 711 714 716 719 722 725 728 731 734
769 770 770 770 770 771 771 770 770 769 769 768 767 766 765 764 763 763 762 762 761 760 759 758 757 755 754 752 750 748 746 745 743 741 740 739 738 737 735 733 731 729 727 724 722 720 718 716 713 711 710 708 706 705 703 701 700 699 698 697 697 696 695 695 696 696 697 697 698 699 700 701 704 707 710 714 717 719 721 723 726 729 731 734 738
772 772 772 772 772 773 773 772 772 772 771 770 769 768 767 766 765 765 764 763 763 762 761 759 758 756 755 753 752 750 748 747 745 743 741 740 739 738 737 736 735 733 731 729 726 724 722 720 718 716 714 712 711 709 708 707 706 705 704 703 702 702 702 702 702 702 703 703 704 705 706 708 710 712 716 719 721 723 725 728 730 733 735 738 741
Wind_Speed
37 37 36 35 34 34 33 32 30 29 27 26 25 24 23 23 22 20 18 16 14 13 12 11 10 10 10 10 11 11 12 12 11 11 12 13 13 13 13 14 15 17 18 19 19 19 20 21 22 21 21 22 23 23 23 23 22 22 22 21 22 21 22 22 14 12 23 26 23 25 25 23 23 24 25 26 25 26 28 29 31 34 38 40 40
38 38 37 36 36 35 34 32 31 29 28 26 25 25 24 23 21 20 17 15 13 12 12 11 10 9 10 11 12 13 13 13 12 11 12 12 13 12 13 14 15 16 17 18 19 20 20 21 22 22 21 21 21 21 22 22 22 23 22 21 21 21 21 22 19 15 19 23 22 23 25 24 25 26 27 28 28 27 28 30 30 32 36 41 42
39 39 38 38 37 36 34 33 31 30 28 27 26 25 24 22 21 19 16 14 13 12 11 10 9 9 11 11 11 12 12 11 11 11 12 12 13 14 14 15 15 16 17 18 19 20 21 21 22 21 21 21 21 21 22 23 22 22 23 22 21 22 22 23 23 19 20 24 23 22 24 25 26 27 28 29 29 28 29 31 31 32 36 40 41
39 39 39 39 38 36 35 33 32 31 30 29 27 25 23 22 20 17 15 13 12 12 10 9 9 10 10 9 9 9 9 8 9 9 11 12 13 15 15 15 15 16 18 20 20 20 20 20 21 21 21 21 22 23 22 23 23 22 23 23 22 22 22 22 23 22 22 24 23 21 22 24 26 27 27 29 30 29 29 30 30 31 35 38 39
38 39 39 38 37 37 36 34 33 32 31 30 28 26 23 21 19 16 14 13 12 10 10 9 10 10 9 9 9 9 9 10 10 11 11 12 13 14 15 16 17 17 19 20 20 19 19 20 21 21 21 21 22 23 22 21 21 21 22 23 22 21 21 21 21 23 23 25 25 23 22 23 25 26 28 30 30 28 27 28 29 30 33 36 37
36 38 38 37 37 37 36 35 34 34 32 30 28 26 23 20 18 16 13 12 11 10 10 10 10 10 10 10 10 10 11 11 12 12 13 13 13 14 15 16 17 18 19 21 21 21 21 21 22 21 21 21 22 23 23 22 21 21 21 22 22 22 24 24 23 24 24 25 27 26 22 23 25 26 28 30 30 29 26 25 26 29 31 33 34
36 36 36 36 37 38 38 37 36 34 32 30 27 25 22 20 18 15 13 12 11 11 11 11 11 11 11 11 11 12 12 13 13 14 14 15 15 16 17 17 17 17 18 20 21 21 21 21 21 22 21 21 21 22 22 22 22 21 21 22 23 24 25 26 25 25 24 25 26 25 23 22 25 26 27 27 27 26 25 25 24 26 28 29 31
37 36 37 37 38 38 38 37 36 34 31 28 26 24 21 19 17 14 13 13 13 12 12 12 13 12 13 13 13 13 14 14 15 16 17 18 18 19 19 19 19 18 18 18 19 19 20 21 21 22 22 22 21 21 21 21 21 21 21 21 22 24 24 24 24 23 23 23 24 24 24 22 22 25 23 21 20 22 26 29 27 27 29 30 30
38 37 36 36 37 37 37 35 34 32 29 27 25 23 21 18 16 15 14 14 13 13 13 13 13 13 14 14 13 13 13 14 15 17 18 19 20 20 21 21 23 23 22 21 21 21 21 21 22 22 23 23 24 24 25 25 26 27 27 25 23 23 23 23 23 22 20 21 23 24 22 21 21 19 19 21 23 25 28 29 26 27 31 29 28
34 35 32 28 25 26 28 30 30 29 28 27 25 22 20 17 16 15 15 14 13 12 12 12 13 13 13 13 12 12 13 15 16 18 19 20 20 21 21 23 24 25 25 24 24 24 24 23 23 24 24 25 26 27 29 29 30 30 31 30 28 26 24 23 22 21 20 19 20 22 20 19 21 18 16 24 29 27 25 26 25 24 24 21 19
14 19 24 25 23 21 22 24 26 26 26 25 23 21 19 17 16 15 14 13 13 12 11 12 12 11 11 10 11 12 14 16 17 19 19 20 21 22 23 24 25 26 26 26 27 26 26 25 24 24 25 26 26 27 28 28 29 30 30 31 31 30 28 27 25 23 21 20 20 21 20 21 23 22 19 23 25 24 26 29 28 23 22 17 13
14 12 16 22 26 26 25 25 25 25 25 23 22 20 18 17 16 15 14 13 12 11 11 11 9 8 8 9 11 13 15 17 18 20 21 20 20 22 23 24 25 26 27 26 27 26 26 26 25 25 25 25 26 27 27 28 29 29 30 32 32 32 32 31 30 28 25 24 23 24 23 23 25 26 23 22 22 22 25 27 26 25 25 23 19
28 25 22 23 26 28 28 28 27 25 24 22 20 19 18 17 15 14 14 13 11 10 9 8 7 6 7 10 12 14 16 19 20 21 22 21 20 20 22 24 25 26 26 26 26 26 26 26 26 26 26 26 26 27 27 29 30 30 31 32 33 34 34 33 34 33 32 31 28 28 27 25 26 29 26 23 23 23 24 24 26 29 29 29 29
30 31 31 30 30 31 31 30 29 27 24 22 21 19 17 16 14 14 13 11 10 9 7 6 5 7 10 12 14 15 18 20 22 23 24 23 22 23 24 26 27 27 28 27 27 27 27 27 27 28 27 27 26 26 27 28 30 30 31 31 32 33 32 32 32 31 32 33 31 30 30 28 28 31 30 27 27 26 24 25 28 30 29 26 25
33 33 32 31 31 32 31 29 29 27 25 23 21 18 16 15 14 13 11 10 9 8 6 5 6 9 11 13 14 17 20 22 23 24 25 25 26 28 28 29 30 29 29 28 28 28 28 27 28 28 27 27 26 26 26 28 29 31 32 33 34 35 34 33 31 30 32 33 32 32 31 29 28 28 28 29 30 31 30 31 31 28 25 22 19
32 31 30 30 31 31 29 27 25 25 23 21 19 17 16 15 13 11 10 9 8 6 5 6 8 10 12 15 17 19 21 23 23 24 25 26 28 29 30 31 31 31 30 29 28 28 28 27 28 28 28 28 27 27 28 29 31 33 33 35 36 37 37 35 32 32 33 34 35 36 35 34 32 31 31 31 31 32 33 31 29 26 22 19 17
31 32 32 32 33 32 29 26 23 21 20 18 17 15 14 13 11 9 8 7 6 5 6 8 9 11 14 16 18 20 22 24 25 27 28 28 29 30 31 32 32 32 32 31 30 30 29 28 28 28 29 29 28 28 28 29 32 33 33 34 35 35 36 34 31 32 34 35 37 38 39 39 38 36 36 33 32 33 31 29 27 26 23 16 12
33 35 36 36 36 32 29 26 23 20 18 16 14 12 11 9 8 7 6 5 5 6 9 11 12 13 15 16 18 21 23 25 28 30 30 30 29 30 31 32 32 32 32 32 31 31 30 29 29 28 30 30 29 30 29 29 32 32 32 33 33 35 34 30 29 31 31 31 34 35 36 37 34 31 30 28 28 30 32 33 30 29 26 20 16
33 36 37 37 35 32 29 27 24 20 17 14 13 11 9 7 5 4 4 5 7 9 12 14 14 13 15 17 18 20 24 27 29 31 32 31 29 29 30 30 31 31 31 32 31 31 31 31 30 30 31 32 32 33 32 32 33 33 32 31 32 34 32 29 30 31 29 29 31 32 33 32 30 29 28 27 25 25 30 36 36 32 29 27 23
36 36 36 35 34 32 30 27 24 21 18 14 11 8 5 3 2 3 5 7 10 13 14 14 13 14 15 16 18 21 24 28 30 31 31 31 29 29 29 29 29 30 31 31 31 30 30 30 31 31 33 35 35 35 34 34 34 35 34 33 32 32 30 30 32 31 29 30 31 31 31 31 30 31 32 31 28 25 26 34 40 38 34 31 29
33 35 36 35 34 33 31 28 26 23 18 14 9 5 3 1 3 5 8 11 13 13 13 12 13 14 14 15 19 22 26 29 31 31 30 30 29 28 28 29 29 31 33 33 33 32 31 31 32 33 34 36 35 34 34 34 34 36 36 35 35 34 34 34 34 31 30 30 29 29 31 32 32 33 33 32 30 27 25 31 40 43 41 37 33
31 35 35 33 32 31 30 28 25 21 16 11 7 5 2 2 5 8 11 12 12 12 12 12 12 13 14 17 21 25 28 30 30 30 30 29 27 27 28 29 30 31 34 35 33 33 33 33 33 33 34 35 35 35 36 36 36 37 38 38 38 38 38 39 37 33 31 31 29 29 31 31 31 31 32 31 30 27 26 30 38 43 45 44 40
34 35 33 32 31 28 26 24 20 17 14 10 7 4 2 4 7 10 11 11 12 13 13 11 11 13 16 19 23 27 30 30 30 29 29 28 27 27 28 30 30 31 33 34 34 35 36 36 36 35 35 36 38 38 39 39 39 40 40 40 40 40 40 40 39 35 33 31 29 29 30 30 30 30 30 31 30 28 27 28 34 41 45 47 46
37 35 32 31 29 25 22 20 17 15 13 10 7 5 2 3 6 9 11 11 12 13 12 10 10 12 16 20 25 28 30 31 30 29 28 27 27 28 29 30 30 31 33 35 35 36 37 37 37 37 38 39 40 41 41 41 42 43 42 41 41 39 39 39 37 34 32 31 29 29 29 29 29 29 30 30 29 28 27 28 31 39 43 45 44
36 33 30 27 25 23 21 20 18 15 12 9 7 6 4 3 5 8 10 12 13 13 11 10 10 12 16 20 25 29 30 31 30 29 28 27 27 28 28 30 31 32 34 35 35 36 38 39 40 41 41 41 42 42 43 44 44 44 44 43 42 40 38 37 35 32 30 29 28 28 29 30 30 30 30 30 29 28 28 27 29 33 37 38 36
34 31 29 27 26 25 23 21 18 14 11 9 8 6 4 3 5 8 10 12 13 12 11 10 10 11 15 19 24 28 30 30 30 29 27 26 27 27 29 31 32 33 34 35 36 38 39 39 40 40 39 40 40 40 41 41 41 41 41 41 41 40 37 35 33 31 30 29 28 28 29 29 29 30 29 28 29 29 28 27 26 28 31 32 30
31 30 29 28 28 27 24 20 16 12 10 9 8 6 4 4 6 8 9 11 12 12 11 10 9 11 15 19 23 27 28 29 29 28 26 27 28 29 30 32 32 33 33 34 35 36 37 38 38 38 39 39 39 40 40 40 39 38 38 37 37 37 36 35 34 32 30 30 29 28 28 28 29 29 28 28 28 29 28 27 27 27 30 31 27
32 31 30 29 27 24 21 17 14 12 11 10 7 5 4 5 6 6 6 8 10 10 11 11 10 10 14 18 21 24 26 28 28 28 28 29 30 31 32 32 32 32 32 33 35 36 36 37 37 36 36 36 36 36 36 36 36 36 35 34 33 34 35 35 35 34 32 30 29 28 27 27 28 29 28 28 28 29 28 28 29 30 31 31 26
32 30 27 24 22 20 17 14 14 14 12 9 6 5 4 4 3 3 5 6 8 10 11 12 12 12 14 17 19 21 25 29 31 31 30 30 30 31 32 32 32 33 33 34 35 35 34 33 33 31 31 30 29 29 30 30 30 31 32 32 32 32 33 33 34 34 32 31 29 27 26 27 28 28 27 27 28 28 28 29 31 31 31 30 26
29 27 23 20 19 17 15 15 16 14 11 7 5 5 4 2 1 3 5 7 8 11 12 14 14 14 15 18 20 22 27 32 33 32 29 28 29 30 31 32 33 33 32 31 31 30 29 29 28 27 26 26 25 25 26 25 25 25 27 29 30 31 31 32 32 33 32 31 30 29 28 28 27 27 27 27 27 26 27 30 32 32 31 28 24
27 24 22 20 18 16 16 17 17 13 9 6 7 7 4 1 3 5 6 7 9 12 14 15 16 16 17 20 23 26 30 34 34 31 28 28 29 30 31 32 31 29 27 27 26 25 24 23 23 23 23 23 24 25 24 22 22 22 22 24 27 30 31 31 32 32 32 31 31 31 30 29 28 26 27 28 27 26 26 28 29 30 30 28 26
26 22 19 18 16 16 18 18 15 11 9 9 9 7 3 3 5 6 7 8 10 12 13 15 17 18 19 22 24 27 31 34 33 30 28 28 29 30 31 30 28 25 24 23 22 21 20 20 20 21 21 21 22 24 23 21 20 20 20 21 23 27 30 31 31 31 31 32 32 31 30 29 28 28 29 28 26 26 26 26 26 27 26 25 26
23 20 17 16 17 18 19 15 11 10 11 12 10 6 4 3 4 6 7 8 9 11 12 14 16 18 19 21 23 26 31 34 32 29 28 28 29 30 30 28 25 23 21 20 19 19 20 20 20 21 21 21 22 22 21 21 20 20 21 21 22 24 28 30 29 28 29 29 30 29 28 28 28 28 28 27 27 27 27 26 26 25 24 23 24
23 21 20 19 19 19 17 12 10 11 13 13 9 5 3 2 2 6 8 10 11 10 10 11 13 16 19 20 22 25 30 34 32 29 27 28 28 29 29 27 25 23 20 19 19 20 20 21 20 21 22 23 23 23 20 20 20 20 21 22 23 23 25 27 28 29 29 27 27 27 27 28 28 28 26 25 25 25 25 26 26 26 25 24 24
25 23 22 21 20 18 14 11 12 14 15 11 6 3 2 1 3 6 8 11 12 12 10 11 14 17 19 20 21 25 31 33 31 28 27 27 28 29 28 25 25 25 23 21 21 21 21 21 21 22 22 22 22 22 20 17 17 19 20 21 23 24 25 26 28 30 31 29 27 27 27 27 28 28 27 25 24 24 23 24 25 26 27 28 27
25 23 21 20 19 16 13 11 13 15 14 9 4 2 1 2 4 6 8 11 12 12 12 13 15 18 20 20 21 26 32 33 31 27 26 26 27 27 25 23 22 23 23 23 23 23 22 22 22 22 22 22 21 20 17 14 12 13 15 17 20 23 25 26 28 29 30 29 28 27 27 26 26 26 25 23 22 23 24 24 25 25 27 29 29
23 21 20 19 17 14 12 12 14 14 12 7 3 1 1 3 5 7 9 10 11 12 13 15 16 19 21 22 22 26 32 34 32 28 26 26 27 26 24 23 22 22 22 23 24 24 23 23 23 23 23 22 21 18 15 12 8 7 8 10 12 14 16 19 22 25 27 27 27 27 26 26 26 27 27 25 23 22 23 25 26 26 28 31 31
20 18 17 15 13 13 12 13 15 14 10 5 3 2 3 5 7 8 10 11 11 12 13 16 17 19 21 22 22 26 32 35 33 31 29 28 27 26 25 24 23 23 23 24 25 24 24 24 24 24 23 22 20 18 15 12 7 4 3 4 5 7 10 12 16 20 23 24 25 25 26 26 27 28 29 28 27 25 25 27 29 29 30 30 29
17 16 14 13 12 11 11 13 13 12 8 6 4 3 5 7 9 11 12 12 12 12 13 16 17 18 19 20 20 25 31 32 31 30 28 27 26 26 25 24 24 24 24 25 25 25 24 24 24 24 23 22 20 18 15 12 8 4 2 4 7 9 12 14 17 19 20 21 22 24 25 25 26 27 28 29 29 29 29 29 31 32 30 28 28
17 16 14 13 10 8 8 9 9 8 6 5 4 5 7 10 11 12 13 12 11 10 13 16 16 16 18 18 18 23 28 29 28 28 26 25 25 25 24 25 25 25 25 25 26 25 25 24 24 24 23 22 21 19 16 14 11 8 6 8 10 12 14 17 19 20 22 22 22 23 24 25 26 26 27 28 29 31 32 31 30 32 32 32 33
16 15 12 10 8 7 8 8 5 3 2 3 4 4 6 8 10 11 11 10 9 9 12 15 15 15 18 18 17 20 24 26 27 26 24 23 24 24 24 24 25 25 25 26 26 25 25 24 24 24 23 22 21 19 18 16 14 12 11 11 13 15 17 18 20 22 24 25 25 24 24 26 28 28 28 29 30 31 33 33 32 33 34 34 35
14 13 10 8 6 5 6 6 6 7 8 9 9 9 8 7 8 9 8 8 8 10 13 14 13 14 17 17 16 18 22 25 26 25 24 23 23 22 22 23 24 24 25 25 25 25 24 23 24 24 24 24 22 20 19 18 17 15 14 14 16 17 18 19 21 24 26 27 28 27 26 27 29 30 30 31 31 31 33 34 34 34 34 34 35
14 12 10 7 5 6 7 8 10 13 16 16 16 15 13 11 11 11 10 8 7 9 14 15 13 13 16 17 16 16 20 23 25 25 24 22 21 21 22 22 22 23 23 24 24 24 23 23 23 24 24 24 23 21 20 19 18 17 17 17 18 18 18 20 22 25 28 29 29 30 31 31 31 32 32 32 32 33 34 34 34 34 33 33 33
18 17 16 14 13 14 15 16 17 18 19 19 18 17 15 13 13 14 14 13 10 11 14 14 12 11 15 17 17 17 18 21 24 25 23 22 21 21 20 21 21 21 22 23 23 23 23 23 23 24 24 24 23 22 21 19 19 19 19 19 20 19 19 19 21 24 29 31 32 32 33 33 32 33 33 34 34 34 34 33 34 34 33 33 33
22 22 21 20 20 20 20 20 20 19 19 19 19 18 16 15 15 16 18 17 16 15 16 16 14 13 14 16 17 17 17 19 22 24 23 22 21 20 20 20 20 20 21 21 22 22 23 23 24 24 25 25 24 23 22 21 21 21 20 21 22 22 21 20 21 24 28 32 33 33 33 33 33 33 33 34 35 34 33 33 34 34 33 33 33
24 23 22 22 22 21 21 20 20 20 20 20 19 18 17 16 17 17 17 17 17 17 17 17 17 17 16 17 18 17 16 16 19 22 23 22 20 20 20 19 19 19 19 20 20 21 22 23 24 25 25 25 25 25 24 23 23 23 23 23 24 24 24 24 25 26 28 30 32 34 34 34 33 34 34 34 34 34 33 33 33 34 33 33 33
22 22 22 21 21 21 20 20 19 20 20 20 19 18 17 16 16 16 17 17 17 17 17 18 18 18 18 19 20 20 18 16 15 18 21 21 20 19 19 19 19 19 19 19 19 20 21 22 24 25 25 26 26 27 26 25 25 24 24 25 25 26 26 28 29 29 30 31 33 35 36 36 35 35 35 35 34 34 34 34 34 34 33 32 32
22 22 21 21 20 20 20 20 20 20 20 19 18 17 16 16 15 15 16 16 17 17 18 18 19 19 19 20 20 21 20 18 15 14 17 19 19 17 17 18 18 18 18 19 20 20 21 22 23 24 25 26 27 28 28 27 27 27 26 26 26 26 28 29 30 31 32 33 34 35 36 37 36 35 35 34 34 34 34 34 34 34 34 33 32
23 23 22 22 22 21 21 20 20 20 19 19 18 18 17 16 16 15 15 16 17 17 17 18 18 19 20 20 21 21 21 21 18 15 13 15 17 17 16 16 17 18 18 19 19 20 20 21 22 23 24 25 26 27 28 28 28 28 28 28 27 28 29 31 31 32 33 34 34 36 36 37 36 35 35 35 34 34 34 34 33 33 33 32 31
22 23 23 23 23 22 21 21 21 20 19 19 18 18 17 16 16 16 15 16 16 17 17 17 17 18 19 20 21 21 21 22 22 18 14 12 13 15 15 15 15 17 18 19 19 19 20 20 21 22 23 24 24 26 26 27 27 27 27 27 28 29 30 32 32 34 35 35 36 36 37 37 37 36 35 35 34 34 34 33 33 32 32 30 29
21 22 22 21 21 20 20 20 20 19 18 18 18 18 18 16 15 15 15 15 16 16 17 17 17 17 18 19 20 21 21 21 22 21 17 12 9 10 12 13 12 13 17 19 20 21 21 21 21 22 23 23 24 25 25 25 25 25 25 25 26 27 29 30 31 32 34 35 35 36 37 37 37 36 35 34 34 33 33 32 32 31 30 30 28
Wind_Direction
202 205 207 209 211 213 216 218 220 220 220 219 219 217 215 214 214 215 217 220 223 227 232 241 253 262 263 260 259 265 277 285 290 288 285 284 283 284 288 292 297 301 305 307 308 310 309 309 308 308 310 311 310 309 307 307 309 308 309 309 303 294 274 254 243 262 272 267 261 263 266 266 266 266 266 265 261 257 255 252 247 244 244 243 240
203 206 208 210 212 214 215 217 218 219 219 218 218 217 215 215 215 217 220 223 227 231 238 249 260 264 263 264 267 274 282 286 287 287 285 283 282 285 291 295 298 300 303 306 307 307 307 305 305 307 308 308 308 309 309 308 310 309 308 308 305 303 296 279 262 255 265 265 259 260 263 261 261 263 264 264 262 259 257 254 249 245 244 243 239
206 206 208 211 213 213 214 215 216 217 217 216 216 215 214 214 215 219 222 223 228 235 244 255 263 266 270 273 276 280 283 286 289 290 290 292 293 294 296 297 297 299 301 303 304 304 304 302 302 304 306 306 303 305 308 308 308 309 308 308 306 303 303 298 286 272 266 267 261 255 257 257 257 260 262 262 262 260 257 256 253 247 242 239 236
207 206 208 211 210 210 211 213 213 214 214 214 214 213 213 212 215 220 222 224 231 239 250 259 261 264 269 275 279 281 283 286 291 294 296 300 301 301 301 299 297 298 300 301 300 299 297 296 297 300 301 301 300 301 303 305 306 306 305 307 310 307 305 304 300 293 285 278 269 256 254 257 258 258 257 256 256 256 254 253 251 246 240 236 234
208 208 209 208 206 207 208 209 211 212 212 212 212 212 212 214 217 220 223 226 234 243 250 253 255 261 268 276 282 285 288 291 294 297 300 303 305 306 305 302 298 297 296 296 295 294 293 292 293 296 295 295 297 298 300 301 303 303 303 305 307 309 310 310 310 307 301 293 285 272 257 254 258 258 253 249 249 247 245 245 244 241 237 234 232
212 209 208 206 204 204 205 207 209 210 211 211 211 212 213 215 218 221 224 229 236 242 245 248 255 263 272 280 287 290 293 295 296 297 298 301 305 308 308 306 303 300 297 295 293 290 289 289 290 290 290 290 291 294 295 297 298 297 299 301 303 305 307 309 311 312 310 305 300 290 268 251 248 250 250 246 243 238 232 232 234 234 232 229 226
214 210 207 205 203 202 203 204 206 207 209 210 210 211 211 213 217 220 225 231 236 240 245 253 261 269 277 285 290 292 293 293 294 294 295 297 300 301 304 306 305 301 298 295 293 291 287 286 287 286 286 286 287 289 291 293 293 293 293 294 296 299 301 302 304 306 307 307 305 302 292 269 247 243 248 246 239 233 226 220 220 224 225 225 223
213 210 207 205 204 203 202 202 203 204 206 207 207 207 207 210 214 217 222 229 235 242 251 260 267 277 287 291 290 290 291 293 295 296 297 299 299 299 300 300 300 300 297 294 293 291 288 286 285 283 283 283 283 285 287 289 291 293 293 293 293 294 294 296 297 297 298 299 298 301 303 292 264 246 242 236 228 227 226 221 217 217 220 222 224
209 208 207 205 204 202 199 198 199 200 200 201 202 203 204 207 210 214 221 229 236 245 254 262 275 285 289 287 284 286 291 296 301 303 303 304 303 301 299 296 296 297 295 293 291 289 288 287 284 283 282 281 281 280 281 283 285 287 289 289 290 291 291 292 291 291 291 290 290 292 297 300 286 257 227 216 221 226 227 222 219 220 219 218 220
209 205 201 201 200 197 194 192 193 194 196 197 198 200 202 205 210 216 223 231 238 245 254 268 280 283 280 276 278 287 297 304 307 308 308 308 306 302 299 298 297 296 293 292 290 288 287 286 284 283 282 281 281 280 279 279 279 280 281 282 282 282 285 287 286 287 286 282 282 286 286 289 290 278 242 226 225 224 222 219 218 217 210 208 217
220 206 193 189 189 191 191 190 190 192 194 196 197 199 201 205 213 220 226 232 238 244 258 272 277 274 271 275 287 300 307 310 311 310 309 309 307 302 299 298 297 295 293 290 288 287 286 285 285 283 282 281 281 280 280 279 277 277 276 276 276 274 275 277 279 281 283 279 276 277 275 274 281 283 272 251 234 220 220 220 216 206 196 197 211
225 223 204 189 184 187 192 192 191 193 195 197 198 198 200 207 214 221 228 233 238 246 261 268 266 265 272 288 304 310 312 312 311 310 309 307 305 302 299 298 296 294 292 289 287 286 285 284 284 283 282 282 282 281 280 279 278 277 275 274 273 271 269 269 270 272 274 276 275 271 268 269 274 276 275 270 257 237 227 223 215 206 202 204 208
208 207 204 194 187 188 191 189 188 191 194 197 198 197 201 208 216 225 230 231 235 245 253 251 250 263 286 304 311 312 315 316 314 312 309 306 304 300 298 297 297 295 293 290 288 286 285 284 283 282 282 282 281 281 280 280 280 278 277 274 271 270 268 266 266 266 266 268 269 267 266 264 266 267 268 272 271 254 235 225 220 215 212 213 216
195 191 191 193 192 191 190 187 186 189 191 194 198 199 204 213 221 226 225 223 231 236 232 233 251 282 300 308 313 319 324 325 322 317 311 306 303 300 298 298 297 296 293 290 287 285 284 283 282 281 281 280 279 279 278 279 280 278 275 273 270 269 268 265 264 263 262 263 265 267 270 267 264 265 265 266 266 258 243 233 227 221 217 219 222
189 187 188 189 189 187 186 185 186 187 186 191 197 202 211 217 216 214 216 221 229 225 221 245 280 296 306 312 318 326 331 331 328 323 315 310 305 301 299 298 296 294 291 288 286 285 283 283 282 281 280 280 279 278 277 277 277 276 273 271 270 269 267 264 262 260 259 261 263 267 271 273 271 271 271 267 263 259 255 248 237 228 223 225 227
190 187 184 182 181 182 183 183 184 183 182 190 201 206 208 207 202 203 210 215 218 221 242 279 294 304 316 321 320 320 323 326 327 325 319 313 307 302 298 296 294 291 289 287 285 284 283 281 281 281 280 280 279 277 277 276 274 273 272 271 270 269 267 265 263 262 261 260 262 264 267 270 272 274 275 274 269 263 257 246 234 224 218 221 224
185 179 175 174 174 175 176 177 180 182 185 193 201 201 197 191 188 194 202 206 219 248 277 291 299 309 321 322 315 310 313 319 323 321 318 313 307 302 297 294 291 288 286 285 283 282 281 280 280 281 280 280 280 279 277 275 272 270 269 270 270 268 268 267 265 264 263 263 263 264 267 269 272 273 273 273 272 266 251 233 221 213 208 208 214
179 172 170 170 168 168 169 172 175 180 185 190 186 178 175 174 176 189 207 226 252 277 292 294 293 303 315 318 314 310 311 317 320 317 314 311 306 301 297 294 290 287 285 284 282 281 280 280 279 278 277 278 279 279 278 275 272 268 266 268 268 266 266 268 267 265 264 263 263 263 267 270 270 270 269 265 265 262 247 232 223 214 208 209 212
176 171 168 165 163 164 165 165 168 173 175 172 165 158 158 163 175 204 241 269 286 291 289 286 287 299 313 317 317 316 315 317 319 315 311 308 304 300 298 295 291 288 287 285 284 282 281 280 279 277 277 279 280 278 276 273 271 269 266 266 265 264 266 267 266 265 263 262 262 262 266 269 264 262 265 264 265 264 250 237 229 218 212 214 211
175 169 164 160 159 161 162 162 166 170 165 156 148 147 147 154 196 258 279 285 285 281 277 278 288 303 314 317 319 321 320 319 319 315 310 305 302 299 297 295 292 291 289 287 286 284 282 281 280 279 280 281 280 278 276 272 270 269 266 263 261 263 266 266 264 264 263 261 260 260 261 264 263 263 267 268 269 273 260 240 230 224 220 217 211
169 159 155 153 154 159 162 163 162 158 149 139 133 133 136 200 261 271 275 272 268 267 270 281 294 304 311 316 321 325 325 323 320 316 310 304 301 299 296 294 293 293 292 290 288 286 284 283 282 282 282 282 279 277 275 272 269 267 263 260 261 262 264 264 263 263 262 259 259 259 259 262 265 266 268 267 266 273 270 246 231 227 226 222 216
149 144 143 144 148 156 158 154 146 136 129 124 121 128 163 244 258 261 261 258 258 264 275 285 294 301 309 318 325 329 331 327 321 316 311 305 301 298 295 293 293 292 291 289 286 285 284 283 282 281 280 279 278 276 275 272 269 265 263 262 264 264 262 262 261 260 259 257 257 257 257 259 262 263 265 265 262 266 270 254 235 228 229 229 225
132 132 137 142 148 152 146 135 127 122 120 119 118 127 187 248 256 256 253 251 258 268 276 284 291 301 313 323 330 332 331 328 322 316 312 307 303 299 295 292 292 290 286 284 284 284 284 283 282 281 279 278 277 276 275 273 269 266 265 264 265 264 262 260 257 255 254 254 254 254 254 255 257 259 262 263 260 260 264 260 242 230 229 231 230
127 130 137 142 142 140 132 125 123 122 122 125 134 147 190 248 254 251 246 248 259 267 271 277 289 306 319 325 330 333 331 327 323 318 313 308 303 300 296 293 292 290 286 284 283 283 284 283 282 282 281 279 278 276 275 272 269 267 265 263 262 261 259 256 252 249 249 249 248 249 252 252 253 256 260 262 263 261 264 266 253 236 230 230 229
127 133 140 140 136 133 131 130 129 131 137 147 156 164 188 234 240 236 237 246 255 259 260 270 289 311 321 324 328 333 331 326 322 318 314 309 304 301 297 295 294 291 288 285 284 283 284 284 284 283 281 279 278 277 274 271 269 267 265 262 259 255 253 251 247 244 243 244 244 246 249 251 252 255 260 265 266 264 265 267 255 236 227 225 224
133 141 144 142 139 137 137 135 134 139 153 159 157 162 180 205 215 223 233 244 250 250 254 268 290 312 321 325 329 331 329 325 321 318 315 311 306 302 300 298 297 295 292 289 288 288 287 287 286 284 282 280 277 274 272 270 269 267 265 261 255 249 246 244 242 239 238 240 242 244 246 250 254 256 260 264 263 260 260 257 243 225 216 213 209
141 144 142 139 138 138 138 137 137 145 161 164 155 154 171 197 208 221 236 243 245 247 254 267 289 311 321 326 330 329 326 324 321 318 316 312 308 306 305 303 301 299 296 293 291 290 289 289 288 285 283 280 277 274 271 268 267 264 260 256 250 244 241 238 236 236 237 238 241 243 245 249 252 253 255 256 254 252 252 245 227 210 202 199 192
140 139 139 139 139 137 136 137 142 154 161 157 148 151 183 204 212 228 249 253 254 257 262 271 287 309 320 323 325 324 324 324 323 321 318 315 312 311 309 307 304 301 298 296 295 294 292 291 289 286 283 279 276 273 269 265 261 258 253 248 244 240 237 234 233 234 236 237 238 240 242 243 245 248 250 249 246 247 245 232 216 200 191 185 176
137 137 137 138 137 134 133 140 152 155 150 145 150 167 180 188 211 260 279 281 282 282 279 281 289 303 315 320 320 320 323 325 326 325 321 319 318 315 312 311 309 305 303 301 300 298 295 292 288 284 281 277 273 270 267 262 257 253 247 241 237 234 232 229 228 229 232 234 235 235 235 236 239 243 243 241 240 240 233 218 205 194 186 181 172
129 128 129 131 133 135 140 148 150 146 139 141 156 159 156 160 287 315 310 307 303 297 293 293 294 297 306 315 321 324 326 327 329 328 326 324 324 321 318 317 314 311 310 311 308 302 297 293 289 284 279 275 272 268 265 261 253 246 241 235 231 227 225 224 224 225 227 229 231 231 231 233 235 235 232 229 228 225 217 207 197 188 183 177 168
121 122 127 131 132 136 145 147 144 140 136 138 143 142 135 67 359 354 340 323 310 300 296 295 296 297 300 308 316 323 329 333 333 331 330 330 330 328 325 322 320 319 320 320 314 305 299 295 291 287 283 279 275 270 266 261 251 242 236 231 227 224 222 222 222 223 224 224 226 227 228 229 229 226 221 217 214 207 199 195 191 185 181 175 164
122 124 129 132 131 136 145 147 146 146 143 139 140 133 92 22 5 357 345 327 312 303 298 297 297 300 304 309 313 321 331 336 336 334 336 336 335 333 331 329 328 330 331 327 316 307 304 302 298 297 296 292 287 280 271 261 251 242 234 228 224 222 221 220 220 219 219 220 220 221 223 224 221 217 213 208 200 192 185 184 182 178 173 166 158
124 126 130 131 132 138 145 148 151 154 152 146 139 118 67 32 356 340 334 325 312 301 300 304 305 307 313 316 317 322 333 339 339 339 341 341 339 338 336 336 337 337 336 332 323 317 316 312 308 308 308 305 303 298 283 265 254 245 235 229 225 223 222 222 220 217 216 215 215 215 218 217 213 208 204 197 189 181 176 173 170 165 157 150 146
122 123 124 127 133 140 145 151 158 159 153 143 128 101 79 65 348 321 316 316 313 308 314 327 329 327 327 326 324 329 338 343 343 344 344 344 344 344 342 342 343 344 342 338 330 326 325 321 317 318 318 313 314 314 302 278 259 247 237 232 229 227 226 222 218 218 219 218 215 215 215 212 206 198 190 184 179 175 170 165 161 156 150 143 139
121 121 122 126 132 136 141 152 161 159 150 139 124 112 116 51 327 312 309 310 308 308 320 340 345 342 339 335 333 337 344 348 348 347 347 348 349 349 348 347 346 344 343 342 338 334 332 328 325 326 325 321 321 324 317 296 270 254 244 238 234 232 229 222 217 217 218 217 216 215 211 206 199 189 180 173 169 164 160 158 156 152 147 142 138
125 123 123 126 128 130 136 145 149 148 144 135 120 123 167 297 308 315 321 316 308 306 317 333 341 343 343 342 340 343 349 352 352 350 349 351 353 353 351 347 343 340 340 341 341 339 337 334 333 333 333 332 332 333 328 311 286 267 257 250 242 237 233 229 223 216 212 209 207 204 199 192 185 177 168 162 159 157 155 152 150 147 144 140 137
128 124 124 127 127 127 131 139 144 144 141 133 126 153 267 295 305 318 327 327 320 316 322 332 337 341 343 345 345 347 352 355 356 355 354 356 358 357 353 348 344 342 341 342 344 343 341 340 341 342 342 342 343 344 340 330 311 283 264 253 242 230 224 220 213 203 196 192 190 187 182 176 171 166 159 152 147 147 147 144 140 137 137 136 134
122 123 126 129 128 125 130 143 149 148 142 142 163 212 280 302 314 323 330 334 332 329 333 339 342 343 343 343 345 350 355 357 358 358 357 358 359 358 354 351 349 347 345 346 348 347 345 346 348 350 350 352 354 356 355 350 342 314 256 221 198 185 178 176 175 174 172 171 170 169 166 163 161 160 157 151 145 142 141 138 134 131 131 132 132
120 128 132 133 129 126 133 145 153 156 160 180 209 245 287 304 315 324 331 338 344 345 345 346 348 349 347 343 345 353 357 358 358 356 355 355 357 357 355 353 352 352 352 352 353 352 351 352 354 357 359 1 5 8 9 9 13 26 98 135 135 136 139 141 144 148 150 151 152 153 154 153 153 153 151 146 142 139 137 135 134 132 130 128 128
134 139 140 137 130 121 121 129 143 159 175 207 249 279 301 311 318 322 326 338 355 3 357 353 354 355 350 345 348 355 358 358 357 355 353 353 355 357 358 357 357 357 356 356 357 357 356 357 1 4 7 10 14 18 22 25 35 51 81 109 114 117 124 130 133 134 134 134 136 140 143 144 143 142 141 139 138 137 134 132 131 130 128 126 124
140 142 142 138 125 112 108 110 113 112 82 19 354 351 342 338 339 335 334 345 5 10 1 359 3 3 356 349 349 355 359 1 360 357 356 357 357 358 1 3 2 2 2 2 2 2 2 5 8 12 15 19 22 26 31 36 45 56 72 91 103 109 116 122 127 128 129 130 130 131 133 135 136 134 133 133 134 133 130 128 127 126 125 124 123
135 139 142 139 123 95 80 76 70 68 70 69 68 64 53 39 31 22 12 16 25 15 2 359 5 10 5 357 352 355 1 5 5 2 1 2 2 3 5 7 8 9 8 8 9 9 9 12 15 19 23 26 29 33 37 40 47 57 68 83 95 103 110 116 120 124 125 126 126 127 127 128 129 128 129 129 129 127 125 124 125 125 124 124 123
112 111 109 104 84 62 62 72 82 87 86 86 84 80 76 71 60 46 36 35 32 17 6 360 3 15 15 8 0 358 2 8 10 8 6 6 6 7 9 11 13 15 16 17 18 18 18 19 22 27 31 34 36 40 43 46 52 60 67 78 88 96 104 110 116 121 123 122 122 124 126 126 125 124 125 125 124 123 122 122 122 122 122 121 121
94 91 89 86 82 81 85 90 93 93 89 86 85 83 80 73 62 52 47 46 41 30 20 12 11 17 17 11 6 2 3 10 13 12 10 11 11 11 12 15 18 21 22 24 26 27 27 27 29 33 37 40 44 48 51 55 60 65 70 77 84 91 99 106 113 119 122 122 121 122 123 124 123 123 123 123 123 122 121 121 121 120 120 119 118
93 90 88 86 83 82 83 86 87 87 85 84 82 79 75 69 62 56 54 53 49 43 37 31 29 27 20 13 9 4 0 6 14 15 14 14 14 14 15 18 22 25 27 29 32 34 34 34 35 37 40 43 47 53 57 61 66 71 75 80 84 89 96 105 113 119 121 121 122 122 122 121 122 122 122 122 123 122 122 121 121 120 119 119 118
88 87 85 84 81 78 76 77 79 79 78 78 75 71 68 66 61 56 54 53 50 46 42 38 37 35 29 23 20 14 4 1 9 15 17 16 15 17 18 20 24 29 31 34 37 40 41 41 42 42 44 47 51 56 60 65 71 76 80 85 89 93 99 108 113 115 116 118 120 121 120 119 119 120 120 120 121 120 120 120 120 119 119 120 121
82 82 82 81 79 77 74 73 74 74 73 72 71 67 64 62 59 55 52 50 47 45 42 39 36 35 33 30 28 25 20 11 7 13 17 18 17 18 20 22 26 31 34 38 42 45 47 49 50 50 51 53 56 59 63 67 73 79 84 89 94 98 104 110 112 112 113 116 117 118 118 117 116 117 119 120 119 119 119 119 119 120 122 123 124
79 79 78 77 76 75 73 71 70 70 69 69 68 65 63 60 57 53 48 44 42 40 38 36 34 33 33 33 31 30 28 24 17 14 17 19 20 21 24 29 34 37 40 43 46 48 51 54 55 57 58 59 60 64 67 71 75 80 85 90 96 102 108 111 112 112 113 114 115 115 116 116 116 117 118 119 119 119 120 121 122 123 125 126 127
79 78 76 75 74 73 71 70 69 67 66 65 63 60 57 56 54 50 45 41 38 35 31 31 31 30 31 32 32 31 31 29 25 20 18 20 23 25 30 37 43 45 45 46 49 52 56 58 59 61 63 64 66 69 72 75 79 82 86 92 99 105 109 110 111 111 112 112 112 113 114 114 114 115 116 117 119 120 121 121 123 125 126 126 128
80 78 76 75 74 72 71 70 68 65 62 60 57 52 49 47 44 41 37 33 31 29 27 26 27 27 28 29 30 31 31 30 28 26 23 21 24 28 34 40 44 42 42 45 48 53 57 60 62 63 64 66 69 72 75 79 82 85 90 96 101 105 107 109 110 112 111 110 110 111 113 113 113 114 115 117 119 120 120 121 123 124 125 126 126
79 77 76 75 74 71 69 67 64 60 58 55 52 49 46 42 37 33 29 25 21 21 20 20 21 24 25 26 28 30 31 31 31 32 31 26 23 27 32 36 38 39 42 48 53 55 57 59 62 65 67 68 70 72 75 79 83 87 92 97 101 105 108 109 111 113 114 113 112 112 112 112 112 113 115 116 118 118 119 121 122 124 125 127 128